Flag for Brazil Weather past 2 weeks in Passo Fundo, Rio Grande do Sul, Brazil

Now
63 °F

Clear.


Feels Like: 63 °F
Forecast: 59 / 79 °F
Wind: 7 mph from East

Location: Porto Alegre Aero-Porto

Current Time: Aug 22, 2014 at 11:27:16 PM

Latest Report: Aug 22, 2014 at 11:00 PM


Visibility: 10 mi

Pressure: 29.95 "Hg

Humidity: 83%

Dew point: 57 °F

Location of Passo FundoLocation

Historic Weather in Passo Fundo — Graph

°F

Passo Fundo temperature yesterday

Maximum temperature yesterday: 81 °F (at 3:00 PM)
Minimum temperature yesterday: 57 °F (at 6:00 AM)
Average temperature yesterday: 67 °F

Past Weeks' High & Low Weather Summary

 TemperatureHumidityPressure
High84 °F (Aug 22, 2:00 PM)100% (Aug 8, 4:00 AM)30.45 "Hg (Aug 8, 4:00 AM)
Low37 °F (Aug 14, 5:00 AM)28% (Aug 10, 1:00 PM)29.89 "Hg (Aug 10, 6:00 PM)
Average59 °F80%30.18 "Hg
* Reported Aug 7 10:00 PM — Aug 22 10:00 PM, Passo Fundo, Weather by CustomWeather, © 2014

Note: Actual official high and low records may vary slightly from our data, if they occured in-between our weather recording intervals... More about our weather records

Advertising

Passo Fundo weather history for previous 24 hours

 ConditionsComfort  
Time TempWeatherWind HumidityBarometerVisibility
10:00 PM
Aug 22
64 °FClear.12 mph78%29.95 "Hg10 mi
9:00 PM68 °FClear.9 mph69%29.95 "Hg10 mi
8:00 PM70 °FClear.10 mph69%29.95 "Hg10 mi
7:00 PM72 °FClear.10 mph73%29.95 "Hg10 mi
6:00 PM75 °FClear.9 mph61%29.95 "Hg10 mi
5:00 PM81 °FSunny.8 mph58%29.92 "Hg10 mi
4:00 PM84 °FSunny.5 mph33%29.92 "Hg10 mi
3:00 PM84 °FSunny.5 mph35%29.92 "Hg10 mi
2:00 PM84 °FSunny.2 mph35%29.95 "Hg10 mi
1:00 PM81 °FSunny.2 mph42%29.98 "Hg10 mi
12:00 PM77 °FPassing clouds.6 mph51%30.01 "HgN/A
11:00 AM72 °FPassing clouds.3 mph61%30.04 "HgN/A
10:00 AM66 °FPassing clouds.5 mph78%30.04 "HgN/A
9:00 AM63 °FClear.2 mph77%30.04 "Hg5 mi
8:00 AM57 °FClear.5 mph94%30.01 "Hg5 mi
7:00 AM54 °FFog.2 mph94%30.01 "Hg2 mi
6:00 AM54 °FFog.No wind94%30.01 "Hg2 mi
5:00 AM54 °FCool.1 mph100%29.98 "Hg2 mi
4:00 AM54 °FCool.No wind100%30.01 "Hg2 mi
3:00 AM55 °FFog.No wind94%30.01 "Hg2 mi
2:00 AM57 °FFog.1 mph94%30.01 "Hg2 mi
1:00 AM57 °FFog.2 mph94%30.01 "Hg2 mi
12:00 AM59 °FFog.No wind94%30.01 "Hg2 mi
11:00 PM
Aug 21
59 °FFog.1 mph94%30.01 "Hg2 mi
Weather by CustomWeather, © 2014

See weather overviewHow to use our weather pages